Location: Unspecified
(0.0000°N, 0.0000°E)
Time: 11:36:12
(UTC+02:00)

CZ-4B DEB - Visible Passes

Search period start: 27 June 2016 00:00
Search period end: 07 July 2016 00:00
Orbit: 432 x 442 km, 97.5° (Epoch: 26 June)

Date Brightness Start Highest point End Pass type
(mag) Time Alt. Az. Time Alt. Az. Time Alt. Az.
27 Jun 4.8 22:01:00 28° W 22:01:00 28° W 22:03:22 10° NW visible
28 Jun 3.3 21:21:41 43° ENE 21:21:41 43° ENE 21:24:43 10° N visible
29 Jun 5.8 22:15:43 16° W 22:15:43 16° W 22:17:14 10° WNW visible
30 Jun 2.9 21:36:21 71° N 21:36:21 71° N 21:39:21 10° N visible
01 Jul 4.6 20:56:58 16° E 20:57:08 16° E 20:59:15 10° NE visible
02 Jul 3.9 21:50:56 44° WNW 21:50:56 44° WNW 21:53:39 10° NNW visible
03 Jul 3.9 21:11:30 27° ENE 21:11:30 27° ENE 21:14:21 10° NNE visible
04 Jul 5.1 22:05:26 25° W 22:05:26 25° W 22:07:35 10° NW visible
05 Jul 3.1 21:25:58 48° ENE 21:25:58 48° ENE 21:28:57 10° N visible
06 Jul 5.1 20:46:28 10° E 20:46:44 10° E 20:47:05 10° ENE visible
06 Jul 5.9 22:19:50 14° W 22:19:50 14° W 22:21:01 10° WNW visible
